RYR73V EPMO-LIBD

Flight info

Callsign RYR73V
Flight time 2h 8m
Altitude 37000
Route XIMBA N195 OMAVA/N0460F360 DCT ABULI/N0458F380 DCT PARAK/N0459F370 DCT VAL/N0459F380 DCT KOSIV DCT LASTI DCT PINUK DCT CRAYE DCT ENOXA
Aircraft B738/M-SDE2E3FGHIRWXY/LB1

Departure

Time 2026-05-07 10:20
Airport Warsaw Modlin Airport (EPMO)

Arrival

Time 2026-05-07 12:28
Airport Bari Karol Wojtyła International Airport (LIBD)
Time Latitude Longitude Altitude Speed Heading
2026-05-07 09:51 52.44749 20.65269 349 ft 0 kts 194°
2026-05-07 10:10 52.44750 20.65270 359 ft 1 kts 194°
2026-05-07 10:10 52.44765 20.65275 351 ft 3 kts 175°
2026-05-07 10:11 52.44781 20.65267 357 ft 3 kts 130°
2026-05-07 10:11 52.44788 20.65243 352 ft 2 kts 86°
2026-05-07 10:11 52.44787 20.65236 356 ft 1 kts 81°
2026-05-07 10:14 52.44791 20.65271 356 ft 6 kts 81°
2026-05-07 10:14 52.44802 20.65394 349 ft 14 kts 81°
2026-05-07 10:15 52.44817 20.65553 349 ft 14 kts 81°
2026-05-07 10:15 52.44831 20.65709 348 ft 13 kts 81°
2026-05-07 10:15 52.44844 20.65858 352 ft 13 kts 81°
2026-05-07 10:15 52.44858 20.66002 350 ft 13 kts 81°
2026-05-07 10:16 52.44872 20.66142 348 ft 12 kts 81°
2026-05-07 10:16 52.44884 20.66279 354 ft 12 kts 82°
2026-05-07 10:16 52.44897 20.66412 353 ft 12 kts 81°
2026-05-07 10:16 52.44910 20.66554 352 ft 13 kts 81°
2026-05-07 10:17 52.44925 20.66715 350 ft 16 kts 82°
2026-05-07 10:17 52.44942 20.66901 354 ft 16 kts 81°
2026-05-07 10:17 52.44974 20.67061 353 ft 14 kts 36°
2026-05-07 10:17 52.45071 20.67057 354 ft 14 kts 350°
2026-05-07 10:18 52.45163 20.67031 353 ft 9 kts 351°
2026-05-07 10:18 52.45183 20.67024 358 ft 0 kts 345°
2026-05-07 10:18 52.45184 20.67023 357 ft 2 kts 345°
2026-05-07 10:18 52.45239 20.66995 354 ft 14 kts 339°
2026-05-07 10:19 52.45280 20.66875 352 ft 12 kts 260°
2026-05-07 10:19 52.45277 20.66850 351 ft 9 kts 259°
2026-05-07 10:19 52.45214 20.66186 348 ft 105 kts 261°
2026-05-07 10:19 52.45062 20.64552 417 ft 177 kts 263°
2026-05-07 10:20 52.44889 20.62406 1162 ft 207 kts 266°
2026-05-07 10:20 52.44726 20.59982 1979 ft 224 kts 260°
2026-05-07 10:20 52.44415 20.57414 2904 ft 235 kts 257°
2026-05-07 10:20 52.44489 20.54663 3650 ft 261 kts 287°
2026-05-07 10:21 52.45585 20.51960 3527 ft 320 kts 317°
2026-05-07 10:21 52.47690 20.50555 4563 ft 333 kts 353°
2026-05-07 10:21 52.49952 20.50930 6172 ft 321 kts 10°
2026-05-07 10:21 52.52105 20.51457 7723 ft 305 kts
2026-05-07 10:22 52.54173 20.51564 9196 ft 293 kts 356°
2026-05-07 10:22 52.56225 20.51483 10118 ft 298 kts 354°
2026-05-07 10:22 52.58311 20.51897 10823 ft 310 kts 18°
2026-05-07 10:22 52.60148 20.53802 11546 ft 320 kts 46°
2026-05-07 10:23 52.61338 20.57006 11807 ft 342 kts 75°
2026-05-07 10:23 52.61768 20.60956 12033 ft 363 kts 85°
2026-05-07 10:23 52.62057 20.65213 12211 ft 385 kts 85°
2026-05-07 10:23 52.62397 20.69708 12451 ft 406 kts 84°
2026-05-07 10:24 52.62805 20.74375 12971 ft 418 kts 83°
2026-05-07 10:24 52.63246 20.79119 13772 ft 419 kts 83°
2026-05-07 10:24 52.63692 20.83878 14343 ft 423 kts 83°
2026-05-07 10:24 52.63765 20.88705 14818 ft 423 kts 102°
2026-05-07 10:25 52.62861 20.93268 15385 ft 419 kts 120°
2026-05-07 10:25 52.61227 20.97176 15953 ft 414 kts 137°
2026-05-07 10:25 52.59066 21.00285 16471 ft 413 kts 145°
2026-05-07 10:25 52.56809 21.03230 16941 ft 417 kts 145°
2026-05-07 10:26 52.54524 21.06193 17420 ft 420 kts 145°
2026-05-07 10:26 52.52233 21.09198 17941 ft 424 kts 145°
2026-05-07 10:26 52.49934 21.12254 18386 ft 427 kts 144°
2026-05-07 10:26 52.47624 21.15343 18770 ft 429 kts 144°
2026-05-07 10:27 52.45292 21.18411 19138 ft 430 kts 148°
2026-05-07 10:27 52.42642 21.20557 19463 ft 424 kts 168°
2026-05-07 10:27 52.39747 21.21153 19871 ft 417 kts 185°
2026-05-07 10:27 52.36911 21.20346 20257 ft 413 kts 201°
2026-05-07 10:28 52.34320 21.18345 20612 ft 413 kts 214°
2026-05-07 10:28 52.32139 21.15313 20939 ft 413 kts 229°
2026-05-07 10:28 52.30366 21.11692 21296 ft 414 kts 232°
2026-05-07 10:28 52.28527 21.08064 21590 ft 417 kts 224°
2026-05-07 10:29 52.26128 21.05384 21885 ft 422 kts 206°
2026-05-07 10:29 52.23331 21.03891 22225 ft 427 kts 193°
2026-05-07 10:29 52.20352 21.03571 22507 ft 434 kts 179°
2026-05-07 10:30 52.14321 21.05018 23015 ft 441 kts 174°
2026-05-07 10:30 52.11290 21.05812 23265 ft 442 kts 175°
2026-05-07 10:30 52.08243 21.06559 23539 ft 444 kts 175°
2026-05-07 10:30 52.05188 21.07272 23804 ft 443 kts 175°
2026-05-07 10:31 52.02147 21.08187 24005 ft 449 kts 167°
2026-05-07 10:31 51.99294 21.10361 24182 ft 458 kts 153°
2026-05-07 10:31 51.96576 21.13058 24403 ft 459 kts 153°
2026-05-07 10:31 51.93848 21.15764 24574 ft 460 kts 153°
2026-05-07 10:32 51.91108 21.18452 24728 ft 461 kts 153°
2026-05-07 10:32 51.88349 21.21129 24901 ft 462 kts 153°
2026-05-07 10:32 51.85581 21.23790 25075 ft 463 kts 153°
2026-05-07 10:32 51.82806 21.26443 25238 ft 464 kts 153°
2026-05-07 10:33 51.80025 21.29094 25388 ft 465 kts 153°
2026-05-07 10:33 51.77234 21.31751 25543 ft 466 kts 153°
2026-05-07 10:33 51.74437 21.34411 25692 ft 467 kts 153°
2026-05-07 10:33 51.71636 21.37073 25838 ft 468 kts 153°
2026-05-07 10:34 51.68833 21.39734 25975 ft 469 kts 153°
2026-05-07 10:34 51.66016 21.42403 26118 ft 470 kts 154°
2026-05-07 10:34 51.63199 21.45083 26254 ft 470 kts 153°
2026-05-07 10:34 51.60389 21.47774 26396 ft 471 kts 153°
2026-05-07 10:35 51.57574 21.50475 26582 ft 470 kts 153°
2026-05-07 10:35 51.54808 21.53126 26804 ft 469 kts 153°
2026-05-07 10:35 51.52008 21.55801 27027 ft 468 kts 153°
2026-05-07 10:35 51.49174 21.58501 27206 ft 467 kts 153°
2026-05-07 10:36 51.46417 21.61136 27370 ft 468 kts 153°
2026-05-07 10:36 51.43626 21.63806 27559 ft 467 kts 153°
2026-05-07 10:36 51.40749 21.66152 27726 ft 460 kts 165°
2026-05-07 10:36 51.37655 21.67222 27911 ft 452 kts 179°
2026-05-07 10:37 51.34539 21.67143 28119 ft 445 kts 191°
2026-05-07 10:37 51.31550 21.65990 28302 ft 442 kts 198°
2026-05-07 10:37 51.28598 21.64622 28481 ft 441 kts 198°
2026-05-07 10:37 51.25647 21.63268 28641 ft 441 kts 198°
2026-05-07 10:38 51.22695 21.61934 28820 ft 441 kts 198°
2026-05-07 10:38 51.19737 21.60615 29025 ft 440 kts 198°
2026-05-07 10:38 51.16787 21.59314 29258 ft 439 kts 198°
2026-05-07 10:38 51.13848 21.58027 29456 ft 438 kts 198°
2026-05-07 10:39 51.10910 21.56746 29603 ft 438 kts 198°
2026-05-07 10:39 51.07964 21.55464 29769 ft 438 kts 198°
2026-05-07 10:39 51.05028 21.54189 29960 ft 437 kts 198°
2026-05-07 10:39 51.02097 21.52919 30138 ft 436 kts 198°
2026-05-07 10:40 50.99166 21.51649 30262 ft 437 kts 198°
2026-05-07 10:40 50.96239 21.50382 30391 ft 436 kts 198°
2026-05-07 10:40 50.93308 21.49115 30539 ft 436 kts 198°
2026-05-07 10:40 50.90384 21.47852 30693 ft 435 kts 198°
2026-05-07 10:41 50.87498 21.46607 30810 ft 436 kts 198°
2026-05-07 10:41 50.84571 21.45346 30932 ft 436 kts 197°
2026-05-07 10:41 50.81651 21.44090 31084 ft 435 kts 197°
2026-05-07 10:41 50.78726 21.42834 31234 ft 435 kts 197°
2026-05-07 10:42 50.75799 21.41578 31341 ft 435 kts 197°
2026-05-07 10:42 50.72878 21.40326 31467 ft 435 kts 197°
2026-05-07 10:42 50.69954 21.39075 31616 ft 435 kts 197°
2026-05-07 10:42 50.67038 21.37829 31764 ft 434 kts 197°
2026-05-07 10:43 50.64121 21.36584 31871 ft 435 kts 197°
2026-05-07 10:43 50.61198 21.35338 31994 ft 435 kts 197°
2026-05-07 10:43 50.58275 21.34093 32147 ft 434 kts 197°
2026-05-07 10:43 50.55361 21.32855 32281 ft 434 kts 197°
2026-05-07 10:44 50.49517 21.30375 32494 ft 435 kts 197°
2026-05-07 10:44 50.46601 21.29139 32633 ft 434 kts 197°
2026-05-07 10:44 50.43682 21.27905 32766 ft 434 kts 197°
2026-05-07 10:45 50.37846 21.25441 32985 ft 434 kts 197°
2026-05-07 10:45 50.34928 21.24211 33127 ft 434 kts 197°
2026-05-07 10:45 50.32010 21.22983 33245 ft 434 kts 197°
2026-05-07 10:46 50.26219 21.20551 33462 ft 434 kts 197°
2026-05-07 10:46 50.23307 21.19330 33606 ft 433 kts 197°
2026-05-07 10:46 50.20401 21.18113 33714 ft 433 kts 197°
2026-05-07 10:47 50.14571 21.15676 33910 ft 433 kts 197°
2026-05-07 10:47 50.11660 21.14462 34040 ft 433 kts 197°
2026-05-07 10:47 50.08752 21.13251 34150 ft 433 kts 197°
2026-05-07 10:48 50.02936 21.10832 34335 ft 433 kts 197°
2026-05-07 10:48 50.00026 21.09624 34463 ft 433 kts 197°
2026-05-07 10:48 49.97115 21.08417 34566 ft 432 kts 197°
2026-05-07 10:49 49.91295 21.06009 34748 ft 433 kts 197°
2026-05-07 10:49 49.88392 21.04810 34866 ft 432 kts 197°
2026-05-07 10:49 49.85484 21.03611 34960 ft 432 kts 197°
2026-05-07 10:50 49.79668 21.01216 35145 ft 432 kts 197°
2026-05-07 10:50 49.73843 20.98824 35375 ft 434 kts 197°
2026-05-07 10:51 49.70927 20.97629 35658 ft 433 kts 197°
2026-05-07 10:51 49.68020 20.96439 35939 ft 431 kts 197°
2026-05-07 10:51 49.65122 20.95255 36195 ft 431 kts 197°
2026-05-07 10:51 49.62219 20.94069 36388 ft 432 kts 197°
2026-05-07 10:52 49.59318 20.92885 36571 ft 433 kts 197°
2026-05-07 10:52 49.56403 20.91698 36809 ft 432 kts 197°
2026-05-07 10:52 49.53496 20.90515 36924 ft 433 kts 198°
2026-05-07 10:52 49.50574 20.89326 36919 ft 434 kts 198°
2026-05-07 10:53 49.44744 20.86961 36924 ft 432 kts 198°
2026-05-07 10:53 49.38942 20.84615 36924 ft 431 kts 198°
2026-05-07 10:54 49.33143 20.82275 36938 ft 430 kts 198°
2026-05-07 10:54 49.27351 20.79942 36941 ft 430 kts 198°
2026-05-07 10:55 49.21597 20.77630 36946 ft 431 kts 198°
2026-05-07 10:55 49.15799 20.75306 36954 ft 431 kts 198°
2026-05-07 10:56 49.09983 20.72981 36948 ft 433 kts 198°
2026-05-07 10:56 49.04157 20.70658 36954 ft 433 kts 198°
2026-05-07 10:57 48.98310 20.68332 36962 ft 434 kts 198°
2026-05-07 10:57 48.92465 20.66013 36962 ft 435 kts 198°
2026-05-07 10:58 48.87594 20.64084 36966 ft 435 kts 198°
2026-05-07 10:58 48.81736 20.61769 36978 ft 435 kts 198°
2026-05-07 10:59 48.75872 20.59457 36968 ft 436 kts 198°
2026-05-07 10:59 48.69054 20.56780 36975 ft 435 kts 198°
2026-05-07 11:00 48.64138 20.54850 36975 ft 435 kts 198°
2026-05-07 11:00 48.58276 20.52554 36971 ft 435 kts 198°
2026-05-07 11:01 48.52419 20.50267 36984 ft 434 kts 198°
2026-05-07 11:01 48.46524 20.48254 36978 ft 437 kts 191°
2026-05-07 11:02 48.40523 20.47202 36964 ft 437 kts 190°
2026-05-07 11:02 48.34483 20.46205 36973 ft 436 kts 190°
2026-05-07 11:03 48.28452 20.45178 36987 ft 437 kts 191°
2026-05-07 11:03 48.22405 20.44125 36990 ft 437 kts 191°
2026-05-07 11:04 48.16354 20.43065 36980 ft 438 kts 191°
2026-05-07 11:04 48.10306 20.42007 36981 ft 438 kts 191°
2026-05-07 11:05 48.04244 20.40950 36988 ft 438 kts 191°
2026-05-07 11:05 47.98189 20.39898 36989 ft 438 kts 191°
2026-05-07 11:06 47.92142 20.38849 36992 ft 437 kts 191°
2026-05-07 11:06 47.86139 20.37811 36985 ft 437 kts 191°
2026-05-07 11:07 47.80102 20.36769 36996 ft 436 kts 191°
2026-05-07 11:07 47.74072 20.35730 36989 ft 436 kts 191°
2026-05-07 11:08 47.68052 20.34696 36993 ft 435 kts 191°
2026-05-07 11:08 47.62036 20.33665 36992 ft 435 kts 191°
2026-05-07 11:09 47.56032 20.32638 36994 ft 434 kts 191°
2026-05-07 11:09 47.50032 20.31613 36995 ft 434 kts 191°
2026-05-07 11:10 47.44064 20.30597 36995 ft 434 kts 191°
2026-05-07 11:10 47.38068 20.29579 36996 ft 434 kts 191°
2026-05-07 11:11 47.32070 20.28562 36994 ft 434 kts 191°
2026-05-07 11:11 47.26074 20.27548 37007 ft 434 kts 191°
2026-05-07 11:12 47.20067 20.26534 36989 ft 435 kts 191°
2026-05-07 11:12 47.14060 20.25523 36987 ft 435 kts 191°
2026-05-07 11:13 47.08095 20.24522 36988 ft 434 kts 191°
2026-05-07 11:13 47.02096 20.23517 36993 ft 433 kts 191°
2026-05-07 11:14 46.96112 20.22517 36997 ft 433 kts 191°
2026-05-07 11:14 46.90130 20.21519 37003 ft 432 kts 191°
2026-05-07 11:15 46.84158 20.20525 37009 ft 432 kts 191°
2026-05-07 11:15 46.78187 20.19534 37015 ft 432 kts 191°
2026-05-07 11:16 46.72264 20.18552 37021 ft 432 kts 191°
2026-05-07 11:16 46.66297 20.17565 37020 ft 432 kts 191°
2026-05-07 11:17 46.60326 20.16581 37025 ft 432 kts 191°
2026-05-07 11:17 46.54355 20.15598 37022 ft 432 kts 191°
2026-05-07 11:18 46.48383 20.14617 37028 ft 432 kts 191°
2026-05-07 11:18 46.42401 20.13637 37035 ft 432 kts 191°
2026-05-07 11:19 46.36422 20.12659 37021 ft 433 kts 191°
2026-05-07 11:19 46.30477 20.11689 37026 ft 433 kts 191°
2026-05-07 11:20 46.24491 20.10714 37025 ft 433 kts 191°
2026-05-07 11:20 46.18499 20.09741 37035 ft 433 kts 191°
2026-05-07 11:21 46.12494 20.08849 37023 ft 434 kts 189°
2026-05-07 11:21 46.06467 20.08131 37027 ft 435 kts 189°
2026-05-07 11:22 46.00440 20.07428 37034 ft 435 kts 189°
2026-05-07 11:22 45.94446 20.06711 37026 ft 435 kts 189°
2026-05-07 11:23 45.88380 20.05975 37023 ft 435 kts 189°
2026-05-07 11:23 45.82390 20.05246 37029 ft 435 kts 189°
2026-05-07 11:24 45.76364 20.04514 37029 ft 435 kts 189°
2026-05-07 11:24 45.70333 20.03784 37027 ft 435 kts 189°
2026-05-07 11:25 45.64297 20.03054 37024 ft 435 kts 189°
2026-05-07 11:25 45.58259 20.02326 37027 ft 436 kts 189°
2026-05-07 11:26 45.52216 20.01599 37027 ft 436 kts 189°
2026-05-07 11:26 45.46162 20.00873 37028 ft 436 kts 189°
2026-05-07 11:27 45.40113 20.00148 37027 ft 437 kts 189°
2026-05-07 11:27 45.34054 19.99424 37022 ft 437 kts 189°
2026-05-07 11:28 45.27987 19.98700 37028 ft 438 kts 189°
2026-05-07 11:28 45.21918 19.97978 37025 ft 438 kts 189°
2026-05-07 11:29 45.16014 19.97285 37028 ft 405 kts 188°
2026-05-07 11:29 45.13277 19.96968 37011 ft 384 kts 188°
2026-05-07 11:29 45.10637 19.96658 37026 ft 379 kts 188°
2026-05-07 11:30 45.05393 19.96030 37031 ft 378 kts 188°
2026-05-07 11:30 45.00198 19.95410 37035 ft 377 kts 188°
2026-05-07 11:31 44.94979 19.94792 37038 ft 376 kts 188°
2026-05-07 11:31 44.89773 19.94179 37041 ft 375 kts 188°
2026-05-07 11:32 44.81991 19.93266 37038 ft 374 kts 188°
2026-05-07 11:33 44.76808 19.92659 37039 ft 373 kts 188°
2026-05-07 11:33 44.71640 19.92054 37034 ft 373 kts 188°
2026-05-07 11:34 44.66477 19.91452 37036 ft 372 kts 188°
2026-05-07 11:34 44.61322 19.90851 37035 ft 372 kts 188°
2026-05-07 11:35 44.56170 19.90252 37036 ft 371 kts 188°
2026-05-07 11:35 44.51024 19.89654 37035 ft 371 kts 188°
2026-05-07 11:36 44.45882 19.89058 37036 ft 371 kts 188°
2026-05-07 11:36 44.40743 19.88464 37035 ft 370 kts 188°
2026-05-07 11:37 44.35606 19.87870 37044 ft 370 kts 188°
2026-05-07 11:37 44.30486 19.87161 37044 ft 369 kts 191°
2026-05-07 11:38 44.25425 19.86015 37041 ft 368 kts 192°
2026-05-07 11:38 44.20372 19.84837 37052 ft 368 kts 192°
2026-05-07 11:39 44.15308 19.83695 37044 ft 369 kts 192°
2026-05-07 11:39 44.10232 19.82568 37043 ft 369 kts 192°
2026-05-07 11:40 44.05154 19.81443 37062 ft 370 kts 192°
2026-05-07 11:40 44.00174 19.79748 37067 ft 367 kts 201°
2026-05-07 11:41 43.95358 19.77337 37054 ft 368 kts 202°
2026-05-07 11:41 43.90539 19.74916 37060 ft 368 kts 202°
2026-05-07 11:42 43.85712 19.72516 37059 ft 369 kts 202°
2026-05-07 11:42 43.80873 19.70127 37057 ft 369 kts 202°
2026-05-07 11:43 43.76034 19.67746 37046 ft 369 kts 201°
2026-05-07 11:43 43.71197 19.65372 37054 ft 369 kts 201°
2026-05-07 11:44 43.66365 19.63005 37044 ft 369 kts 201°
2026-05-07 11:44 43.61526 19.60638 37069 ft 369 kts 201°
2026-05-07 11:45 43.56679 19.58271 37069 ft 370 kts 201°
2026-05-07 11:45 43.51809 19.55897 37053 ft 372 kts 201°
2026-05-07 11:46 43.46927 19.53522 37058 ft 372 kts 201°
2026-05-07 11:46 43.42050 19.51153 37052 ft 372 kts 201°
2026-05-07 11:47 43.37176 19.48790 37075 ft 371 kts 201°
2026-05-07 11:47 43.32301 19.46430 37052 ft 371 kts 201°
2026-05-07 11:48 43.28218 19.44457 37064 ft 371 kts 201°
2026-05-07 11:48 43.23351 19.42108 37065 ft 371 kts 201°
2026-05-07 11:49 43.18492 19.39768 37073 ft 369 kts 202°
2026-05-07 11:49 43.13649 19.37438 37083 ft 369 kts 202°
2026-05-07 11:50 43.08805 19.35100 37069 ft 367 kts 202°
2026-05-07 11:50 43.04002 19.32799 37102 ft 366 kts 202°
2026-05-07 11:51 42.99197 19.30506 37093 ft 366 kts 201°
2026-05-07 11:51 42.94392 19.28214 37104 ft 366 kts 201°
2026-05-07 11:52 42.89591 19.25925 37106 ft 366 kts 202°
2026-05-07 11:52 42.84794 19.23642 37113 ft 364 kts 202°
2026-05-07 11:53 42.80002 19.21363 37128 ft 365 kts 202°
2026-05-07 11:53 42.75236 19.19100 37117 ft 366 kts 202°
2026-05-07 11:54 42.70349 19.16783 37131 ft 377 kts 202°
2026-05-07 11:54 42.65316 19.14400 37135 ft 389 kts 202°
2026-05-07 11:55 42.60131 19.11951 37135 ft 400 kts 202°
2026-05-07 11:55 42.54796 19.09436 37124 ft 411 kts 202°
2026-05-07 11:56 42.49323 19.06862 37122 ft 421 kts 202°
2026-05-07 11:56 42.43728 19.04234 37120 ft 430 kts 202°
2026-05-07 11:57 42.38029 19.01564 37105 ft 435 kts 202°
2026-05-07 11:57 42.32303 18.98887 37105 ft 436 kts 202°
2026-05-07 11:58 42.26554 18.96203 37078 ft 437 kts 202°
2026-05-07 11:58 42.20846 18.93543 37090 ft 437 kts 202°
2026-05-07 11:59 42.15102 18.90870 37090 ft 437 kts 202°
2026-05-07 11:59 42.09634 18.87494 37101 ft 430 kts 216°
2026-05-07 12:00 42.05064 18.82414 37107 ft 426 kts 226°
2026-05-07 12:00 42.00785 18.76907 37098 ft 426 kts 226°
2026-05-07 12:01 41.96482 18.71429 37104 ft 426 kts 226°
2026-05-07 12:01 41.92155 18.65978 37102 ft 427 kts 226°
2026-05-07 12:02 41.87819 18.60532 37103 ft 427 kts 226°
2026-05-07 12:02 41.83495 18.55064 37094 ft 427 kts 226°
2026-05-07 12:03 41.79200 18.49567 37103 ft 427 kts 227°
2026-05-07 12:03 41.74929 18.44110 37095 ft 427 kts 227°
2026-05-07 12:04 41.70616 18.38617 36825 ft 432 kts 227°
2026-05-07 12:04 41.68438 18.35847 36351 ft 430 kts 227°
2026-05-07 12:04 41.66273 18.33100 35720 ft 428 kts 227°
2026-05-07 12:04 41.64100 18.30345 34962 ft 431 kts 227°
2026-05-07 12:05 41.61924 18.27587 34256 ft 432 kts 227°
2026-05-07 12:05 41.59733 18.24812 33424 ft 435 kts 227°
2026-05-07 12:05 41.57536 18.22033 32627 ft 435 kts 226°
2026-05-07 12:05 41.55334 18.19251 31832 ft 436 kts 226°
2026-05-07 12:06 41.53129 18.16468 31024 ft 437 kts 226°
2026-05-07 12:06 41.50914 18.13675 30201 ft 438 kts 226°
2026-05-07 12:06 41.48800 18.10735 29067 ft 441 kts 230°
2026-05-07 12:06 41.46780 18.07646 28067 ft 442 kts 231°
2026-05-07 12:07 41.44779 18.04537 27080 ft 442 kts 231°
2026-05-07 12:07 41.42778 18.01425 26075 ft 443 kts 231°
2026-05-07 12:07 41.40773 17.98324 25370 ft 438 kts 230°
2026-05-07 12:07 41.38788 17.95271 24643 ft 434 kts 230°
2026-05-07 12:08 41.36820 17.92257 23930 ft 429 kts 230°
2026-05-07 12:08 41.34868 17.89277 23147 ft 425 kts 230°
2026-05-07 12:08 41.32933 17.86328 22385 ft 420 kts 230°
2026-05-07 12:08 41.31022 17.83420 21681 ft 414 kts 230°
2026-05-07 12:09 41.29136 17.80551 20976 ft 409 kts 230°
2026-05-07 12:09 41.27273 17.77718 20287 ft 405 kts 230°
2026-05-07 12:09 41.25428 17.74915 19609 ft 400 kts 230°
2026-05-07 12:09 41.23603 17.72143 18944 ft 396 kts 230°
2026-05-07 12:10 41.21817 17.69434 18268 ft 392 kts 230°
2026-05-07 12:10 41.20030 17.66718 17519 ft 388 kts 231°
2026-05-07 12:10 41.18378 17.63899 16760 ft 385 kts 235°
2026-05-07 12:10 41.16844 17.61008 16062 ft 380 kts 236°
2026-05-07 12:11 41.15352 17.58134 15390 ft 376 kts 236°
2026-05-07 12:11 41.13867 17.55296 14734 ft 372 kts 236°
2026-05-07 12:11 41.12386 17.52502 14101 ft 369 kts 235°
2026-05-07 12:11 41.10909 17.49743 13407 ft 365 kts 235°
2026-05-07 12:12 41.09441 17.47019 12957 ft 357 kts 235°
2026-05-07 12:12 41.08031 17.44411 12811 ft 341 kts 235°
2026-05-07 12:12 41.06676 17.41908 12658 ft 327 kts 235°
2026-05-07 12:12 41.05547 17.39389 12689 ft 308 kts 246°
2026-05-07 12:13 41.04790 17.36740 12265 ft 309 kts 250°
2026-05-07 12:13 41.04099 17.34108 12219 ft 296 kts 250°
2026-05-07 12:13 41.03419 17.31568 12086 ft 290 kts 250°
2026-05-07 12:13 41.02742 17.29079 11957 ft 282 kts 249°
2026-05-07 12:14 41.02078 17.26674 11740 ft 277 kts 249°
2026-05-07 12:14 41.01541 17.24284 11677 ft 266 kts 263°
2026-05-07 12:14 41.01660 17.22248 11609 ft 260 kts 283°
2026-05-07 12:14 41.02427 17.20092 11402 ft 261 kts 302°
2026-05-07 12:15 41.03667 17.18375 11163 ft 264 kts 321°
2026-05-07 12:15 41.05326 17.17292 10915 ft 267 kts 335°
2026-05-07 12:15 41.07049 17.16449 10731 ft 258 kts 336°
2026-05-07 12:15 41.08731 17.15790 10585 ft 251 kts 352°
2026-05-07 12:16 41.10436 17.16145 10482 ft 251 kts 22°
2026-05-07 12:16 41.11832 17.17580 10250 ft 263 kts 53°
2026-05-07 12:16 41.12702 17.19756 10026 ft 271 kts 69°
2026-05-07 12:16 41.13353 17.22121 9712 ft 272 kts 71°
2026-05-07 12:17 41.13970 17.24468 9477 ft 267 kts 71°
2026-05-07 12:17 41.14571 17.26750 9179 ft 264 kts 71°
2026-05-07 12:17 41.15198 17.29062 8902 ft 261 kts 70°
2026-05-07 12:17 41.15826 17.31269 8637 ft 258 kts 64°
2026-05-07 12:18 41.16957 17.33060 8363 ft 253 kts 32°
2026-05-07 12:18 41.18566 17.33841 8116 ft 245 kts
2026-05-07 12:18 41.20227 17.33638 7884 ft 237 kts 341°
2026-05-07 12:18 41.21789 17.32932 7677 ft 239 kts 337°
2026-05-07 12:19 41.23369 17.32134 7436 ft 247 kts 337°
2026-05-07 12:19 41.24990 17.31295 7261 ft 250 kts 332°
2026-05-07 12:19 41.26279 17.29858 7096 ft 237 kts 300°
2026-05-07 12:19 41.26833 17.27880 6868 ft 227 kts 273°
2026-05-07 12:20 41.26730 17.25843 6653 ft 217 kts 252°
2026-05-07 12:20 41.26265 17.23987 6430 ft 208 kts 247°
2026-05-07 12:20 41.25760 17.22212 6177 ft 204 kts 247°
2026-05-07 12:20 41.25264 17.20469 5951 ft 200 kts 246°
2026-05-07 12:21 41.24775 17.18758 5730 ft 197 kts 246°
2026-05-07 12:21 41.24300 17.17081 5548 ft 192 kts 247°
2026-05-07 12:21 41.23837 17.15431 5336 ft 189 kts 246°
2026-05-07 12:21 41.23380 17.13801 5135 ft 188 kts 246°
2026-05-07 12:22 41.22929 17.12194 4937 ft 188 kts 246°
2026-05-07 12:22 41.22476 17.10575 4745 ft 187 kts 246°
2026-05-07 12:22 41.22031 17.08952 4530 ft 188 kts 251°
2026-05-07 12:22 41.21845 17.07224 4320 ft 188 kts 258°
2026-05-07 12:23 41.21640 17.05524 4126 ft 185 kts 252°
2026-05-07 12:23 41.21362 17.03854 3931 ft 185 kts 253°
2026-05-07 12:23 41.21052 17.02208 3730 ft 182 kts 245°
2026-05-07 12:23 41.20614 17.00629 3536 ft 184 kts 249°
2026-05-07 12:24 41.20313 16.98966 3338 ft 185 kts 250°
2026-05-07 12:24 41.19990 16.97334 3136 ft 179 kts 249°
2026-05-07 12:24 41.19586 16.95844 2932 ft 165 kts 234°
2026-05-07 12:24 41.19047 16.94540 2735 ft 157 kts 237°
2026-05-07 12:25 41.18605 16.93264 2533 ft 148 kts 239°
2026-05-07 12:25 41.18186 16.91947 2431 ft 162 kts 244°
2026-05-07 12:25 41.17881 16.90549 2365 ft 154 kts 248°
2026-05-07 12:25 41.17593 16.89169 2246 ft 153 kts 247°
2026-05-07 12:26 41.17294 16.87827 2288 ft 152 kts 245°
2026-05-07 12:26 41.16946 16.86533 2199 ft 150 kts 244°
2026-05-07 12:26 41.16591 16.85217 1924 ft 149 kts 243°
2026-05-07 12:26 41.16227 16.83935 1646 ft 148 kts 242°
2026-05-07 12:27 41.15829 16.82668 1304 ft 146 kts 240°
2026-05-07 12:27 41.15415 16.81448 1091 ft 140 kts 239°
2026-05-07 12:27 41.15037 16.80238 743 ft 145 kts 245°
2026-05-07 12:27 41.14681 16.78953 498 ft 153 kts 243°
2026-05-07 12:28 41.14298 16.77614 236 ft 154 kts 244°
2026-05-07 12:28 41.13949 16.76353 143 ft 140 kts 244°
2026-05-07 12:28 41.13646 16.75338 171 ft 86 kts 249°
2026-05-07 12:28 41.13523 16.74918 176 ft 40 kts 248°
2026-05-07 12:29 41.13444 16.74739 182 ft 16 kts 192°
2026-05-07 12:29 41.13377 16.74812 183 ft 13 kts 118°
2026-05-07 12:29 41.13346 16.74920 182 ft 13 kts 88°
2026-05-07 12:29 41.13374 16.75041 179 ft 15 kts 71°
2026-05-07 12:30 41.13411 16.75176 175 ft 17 kts 67°
2026-05-07 12:30 41.13457 16.75329 170 ft 19 kts 68°
2026-05-07 12:30 41.13504 16.75487 169 ft 18 kts 68°
2026-05-07 12:30 41.13550 16.75641 166 ft 18 kts 70°
2026-05-07 12:31 41.13593 16.75802 163 ft 19 kts 70°
2026-05-07 12:31 41.13639 16.75967 157 ft 21 kts 70°
2026-05-07 12:31 41.13693 16.76156 150 ft 23 kts 70°
2026-05-07 12:31 41.13748 16.76354 143 ft 23 kts 69°
2026-05-07 12:32 41.13785 16.76489 139 ft 8 kts 70°
2026-05-07 12:32 41.13767 16.76549 138 ft 7 kts 144°
2026-05-07 12:32 41.13731 16.76594 138 ft 7 kts 108°
2026-05-07 12:32 41.13743 16.76664 136 ft 9 kts 70°
2026-05-07 12:33 41.13769 16.76851 133 ft 11 kts 96°
2026-05-07 12:33 41.13787 16.76947 133 ft 11 kts 69°
2026-05-07 12:33 41.13813 16.77037 134 ft 9 kts 69°
2026-05-07 12:34 41.13812 16.77067 135 ft 2 kts 119°
2026-05-07 12:34 41.13799 16.77079 135 ft 3 kts 153°
2026-05-07 12:34 41.13779 16.77086 134 ft 2 kts 186°
2026-05-07 12:34 41.13774 16.77084 134 ft 0 kts 194°